Time,TemperatureF,DewpointF,PressureIn,WindDirection,WindDirectionDegrees,WindSpeedMPH,WindSpeedGustMPH,Humidity,HourlyPrecipIn,Conditions,Clouds,dailyrainin,SolarRadiationWatts/m^2,SoftwareType,DateUTC
2013-01-09 00:02:00,26.8,12.0,30.36,WSW,241,1.0,4.0,53,0.00,,,0.00,0.0,meteohub,2013-01-09 07:02:00,
2013-01-09 00:07:00,26.8,12.0,30.36,East,95,2.0,7.0,53,0.00,,,0.00,0.0,meteohub,2013-01-09 07:07:00,
2013-01-09 00:12:00,26.8,12.0,30.36,ESE,120,2.0,11.0,53,0.00,,,0.00,0.0,meteohub,2013-01-09 07:12:00,
2013-01-09 00:17:00,26.1,11.3,30.37,NNW,330,1.0,11.0,53,0.00,,,0.00,0.0,meteohub,2013-01-09 07:17:00,
2013-01-09 00:22:00,25.3,11.5,30.37,NNW,330,1.0,9.0,55,0.00,,,0.00,0.0,meteohub,2013-01-09 07:22:00,
2013-01-09 00:28:00,25.5,11.1,30.37,NNW,330,0.0,9.0,54,0.00,,,0.00,0.0,meteohub,2013-01-09 07:28:00,
2013-01-09 00:33:00,25.7,11.3,30.37,NNW,330,1.0,9.0,54,0.00,,,0.00,0.0,meteohub,2013-01-09 07:33:00,
2013-01-09 00:38:00,25.7,11.3,30.37,NNW,331,2.0,5.0,54,0.00,,,0.00,0.0,meteohub,2013-01-09 07:38:00,
2013-01-09 00:43:00,25.5,11.1,30.37,NE,35,5.0,8.0,54,0.00,,,0.00,0.0,meteohub,2013-01-09 07:43:00,
2013-01-09 00:48:00,25.7,11.3,30.37,NE,39,1.0,8.0,54,0.00,,,0.00,0.0,meteohub,2013-01-09 07:48:00,
2013-01-09 00:54:00,25.5,11.1,30.37,NE,39,0.0,8.0,54,0.00,,,0.00,0.0,meteohub,2013-01-09 07:54:00,
2013-01-09 00:59:00,25.2,11.3,30.38,NE,39,4.0,7.0,55,0.00,,,0.00,0.0,meteohub,2013-01-09 07:59:00,
2013-01-09 01:04:00,24.3,10.8,30.38,NE,39,4.0,5.0,56,0.00,,,0.00,0.0,meteohub,2013-01-09 08:04:00,
2013-01-09 01:09:00,24.4,11.5,30.38,NNE,12,1.0,6.0,57,0.00,,,0.00,0.0,meteohub,2013-01-09 08:09:00,
2013-01-09 01:14:00,24.6,10.8,30.38,North,350,5.0,11.0,55,0.00,,,0.00,0.0,meteohub,2013-01-09 08:14:00,
2013-01-09 01:19:00,24.6,10.4,30.38,North,349,5.0,11.0,54,0.00,,,0.00,0.0,meteohub,2013-01-09 08:19:00,
2013-01-09 01:25:00,24.8,10.6,30.39,NNW,348,5.0,12.0,54,0.00,,,0.00,0.0,meteohub,2013-01-09 08:25:00,
2013-01-09 01:30:00,25.7,10.9,30.39,NW,326,4.0,12.0,53,0.00,,,0.00,0.0,meteohub,2013-01-09 08:30:00,
2013-01-09 01:36:00,26.4,10.8,30.39,NW,326,2.0,10.0,51,0.00,,,0.00,0.0,meteohub,2013-01-09 08:36:00,
2013-01-09 01:41:00,27.1,11.5,30.39,NW,313,8.0,12.0,51,0.00,,,0.00,0.0,meteohub,2013-01-09 08:41:00,
2013-01-09 01:46:00,27.1,11.5,30.39,NW,313,8.0,13.0,51,0.00,,,0.00,0.0,meteohub,2013-01-09 08:46:00,
2013-01-09 01:51:00,28.9,10.8,30.40,North,-999,-999.0,13.0,46,0.00,,,0.00,0.0,meteohub,2013-01-09 08:51:00,
2013-01-09 01:57:00,28.9,10.8,30.40,NW,311,0.0,10.0,46,0.00,,,0.00,0.0,meteohub,2013-01-09 08:57:00,
2013-01-09 02:02:00,28.6,10.9,30.40,NW,311,2.0,8.0,47,0.00,,,0.00,0.0,meteohub,2013-01-09 09:02:00,
2013-01-09 02:07:00,28.6,10.9,30.41,NW,311,2.0,8.0,47,0.00,,,0.00,0.0,meteohub,2013-01-09 09:07:00,
2013-01-09 02:12:00,28.8,11.1,30.41,NW,305,1.0,7.0,47,0.00,,,0.00,0.0,meteohub,2013-01-09 09:12:00,
2013-01-09 02:17:00,28.9,10.8,30.40,NW,305,1.0,14.0,46,0.00,,,0.00,0.0,meteohub,2013-01-09 09:17:00,
2013-01-09 02:22:00,29.3,11.1,30.40,NW,324,7.0,14.0,46,0.00,,,0.00,0.0,meteohub,2013-01-09 09:22:00,
2013-01-09 02:28:00,29.8,11.1,30.40,NNW,335,7.0,14.0,45,0.00,,,0.00,0.0,meteohub,2013-01-09 09:28:00,
2013-01-09 02:33:00,29.8,11.1,30.40,NW,320,8.0,14.0,45,0.00,,,0.00,0.0,meteohub,2013-01-09 09:33:00,
2013-01-09 02:38:00,30.0,10.8,30.40,NW,323,5.0,14.0,44,0.00,,,0.00,0.0,meteohub,2013-01-09 09:38:00,
2013-01-09 02:43:00,30.0,11.3,30.40,NW,323,7.0,16.0,45,0.00,,,0.00,0.0,meteohub,2013-01-09 09:43:00,
2013-01-09 02:48:00,29.8,10.6,30.40,NW,322,6.0,18.0,44,0.00,,,0.00,0.0,meteohub,2013-01-09 09:48:00,
2013-01-09 02:54:00,29.8,11.1,30.40,NW,318,9.0,18.0,45,0.00,,,0.00,0.0,meteohub,2013-01-09 09:54:00,
2013-01-09 02:59:00,29.8,11.1,30.40,NW,324,8.0,16.0,45,0.00,,,0.00,0.0,meteohub,2013-01-09 09:59:00,
2013-01-09 03:04:00,29.7,10.4,30.39,NW,320,7.0,14.0,44,0.00,,,0.00,0.0,meteohub,2013-01-09 10:04:00,
2013-01-09 03:09:00,29.7,10.9,30.39,NNW,336,5.0,13.0,45,0.00,,,0.00,0.0,meteohub,2013-01-09 10:09:00,
2013-01-09 03:14:00,29.5,12.2,30.39,NW,308,7.0,15.0,48,0.00,,,0.00,0.0,meteohub,2013-01-09 10:14:00,
2013-01-09 03:20:00,29.7,10.4,30.39,NW,318,4.0,15.0,44,0.00,,,0.00,0.0,meteohub,2013-01-09 10:20:00,
2013-01-09 03:25:00,29.7,10.4,30.39,NW,318,5.0,12.0,44,0.00,,,0.00,0.0,meteohub,2013-01-09 10:25:00,
2013-01-09 03:30:00,29.7,9.9,30.39,NW,324,11.0,12.0,43,0.00,,,0.00,0.0,meteohub,2013-01-09 10:30:00,
2013-01-09 03:35:00,29.7,9.9,30.39,NW,316,8.0,12.0,43,0.00,,,0.00,0.0,meteohub,2013-01-09 10:35:00,
2013-01-09 03:40:00,30.4,10.0,30.39,NNW,339,6.0,12.0,42,0.00,,,0.00,0.0,meteohub,2013-01-09 10:40:00,
2013-01-09 03:46:00,30.7,9.9,30.38,NW,320,3.0,11.0,41,0.00,,,0.00,0.0,meteohub,2013-01-09 10:46:00,
2013-01-09 03:51:00,30.7,9.9,30.38,NW,320,5.0,11.0,41,0.00,,,0.00,0.0,meteohub,2013-01-09 10:51:00,
2013-01-09 03:56:00,31.3,9.7,30.37,NNW,341,2.0,13.0,40,0.00,,,0.00,0.0,meteohub,2013-01-09 10:56:00,
2013-01-09 04:01:00,32.0,9.3,30.37,NW,318,7.0,13.0,38,0.00,,,0.00,0.0,meteohub,2013-01-09 11:01:00,
2013-01-09 04:06:00,32.9,9.5,30.38,NNE,24,5.0,13.0,37,0.00,,,0.00,0.0,meteohub,2013-01-09 11:06:00,
2013-01-09 04:11:00,33.1,9.0,30.38,NNW,333,6.0,12.0,36,0.00,,,0.00,0.0,meteohub,2013-01-09 11:11:00,
2013-01-09 04:17:00,33.3,9.1,30.37,NNW,344,5.0,12.0,36,0.00,,,0.00,0.0,meteohub,2013-01-09 11:17:00,
2013-01-09 04:22:00,33.3,9.9,30.37,NW,324,7.0,11.0,37,0.00,,,0.00,0.0,meteohub,2013-01-09 11:22:00,
2013-01-09 04:27:00,33.1,9.7,30.37,NNW,329,6.0,15.0,37,0.00,,,0.00,0.0,meteohub,2013-01-09 11:27:00,
2013-01-09 04:32:00,33.3,9.9,30.37,NNW,328,7.0,15.0,37,0.00,,,0.00,0.0,meteohub,2013-01-09 11:32:00,
2013-01-09 04:37:00,33.4,9.3,30.37,NNW,342,9.0,15.0,36,0.00,,,0.00,0.0,meteohub,2013-01-09 11:37:00,
2013-01-09 04:43:00,33.6,9.5,30.37,NNW,329,8.0,15.0,36,0.00,,,0.00,0.0,meteohub,2013-01-09 11:43:00,
2013-01-09 04:48:00,33.4,10.0,30.36,NW,319,10.0,15.0,37,0.00,,,0.00,0.0,meteohub,2013-01-09 11:48:00,
2013-01-09 04:53:00,33.3,9.9,30.36,NW,320,9.0,15.0,37,0.00,,,0.00,0.0,meteohub,2013-01-09 11:53:00,
2013-01-09 04:58:00,33.1,9.7,30.36,NW,317,12.0,15.0,37,0.00,,,0.00,0.0,meteohub,2013-01-09 11:58:00,
2013-01-09 05:04:00,32.9,8.2,30.36,NW,316,9.0,15.0,35,0.00,,,0.00,0.0,meteohub,2013-01-09 12:04:00,
2013-01-09 05:09:00,34.3,7.5,30.37,NW,313,10.0,16.0,32,0.00,,,0.00,0.0,meteohub,2013-01-09 12:09:00,
2013-01-09 05:14:00,34.7,7.9,30.37,WNW,301,9.0,16.0,32,0.00,,,0.00,0.0,meteohub,2013-01-09 12:14:00,
2013-01-09 05:19:00,35.1,8.2,30.38,NW,306,4.0,14.0,32,0.00,,,0.00,0.0,meteohub,2013-01-09 12:19:00,
2013-01-09 05:25:00,34.3,7.5,30.38,NW,312,4.0,14.0,32,0.00,,,0.00,0.0,meteohub,2013-01-09 12:25:00,
2013-01-09 05:30:00,34.2,6.6,30.38,ENE,66,7.0,11.0,31,0.00,,,0.00,0.0,meteohub,2013-01-09 12:30:00,
2013-01-09 05:35:00,34.0,7.2,30.38,NNW,339,0.0,8.0,32,0.00,,,0.00,0.0,meteohub,2013-01-09 12:35:00,
2013-01-09 05:40:00,34.0,7.9,30.38,NW,326,4.0,14.0,33,0.00,,,0.00,0.0,meteohub,2013-01-09 12:40:00,
2013-01-09 05:45:00,34.0,7.9,30.38,NNE,28,2.0,14.0,33,0.00,,,0.00,0.0,meteohub,2013-01-09 12:45:00,
2013-01-09 05:51:00,33.6,8.2,30.39,NNE,27,2.0,14.0,34,0.00,,,0.00,0.0,meteohub,2013-01-09 12:51:00,
2013-01-09 05:56:00,33.1,9.0,30.39,NNE,27,0.0,8.0,36,0.00,,,0.00,0.0,meteohub,2013-01-09 12:56:00,
2013-01-09 06:01:00,32.4,8.4,30.39,WNW,292,3.0,4.0,36,0.00,,,0.00,0.0,meteohub,2013-01-09 13:01:00,
2013-01-09 06:06:00,32.2,8.2,30.38,NW,326,0.0,8.0,36,0.00,,,0.00,0.0,meteohub,2013-01-09 13:06:00,
2013-01-09 06:11:00,31.6,9.0,30.39,NW,326,0.0,8.0,38,0.00,,,0.00,0.0,meteohub,2013-01-09 13:11:00,
2013-01-09 06:17:00,30.7,8.8,30.39,NW,326,0.0,8.0,39,0.00,,,0.00,0.0,meteohub,2013-01-09 13:17:00,
2013-01-09 06:22:00,30.2,8.8,30.39,NW,326,0.0,8.0,40,0.00,,,0.00,0.0,meteohub,2013-01-09 13:22:00,
2013-01-09 06:27:00,29.8,9.0,30.39,NW,326,2.0,2.0,41,0.00,,,0.00,0.0,meteohub,2013-01-09 13:27:00,
2013-01-09 06:32:00,28.8,9.1,30.40,NW,326,4.0,4.0,43,0.00,,,0.00,0.0,meteohub,2013-01-09 13:32:00,
2013-01-09 06:37:00,28.6,9.9,30.39,NW,326,4.0,5.0,45,0.00,,,0.00,0.0,meteohub,2013-01-09 13:37:00,
2013-01-09 06:43:00,28.0,9.9,30.39,NW,326,0.0,6.0,46,0.00,,,0.00,0.0,meteohub,2013-01-09 13:43:00,
2013-01-09 06:48:00,28.0,9.5,30.39,NW,326,3.0,7.0,45,0.00,,,0.00,0.0,meteohub,2013-01-09 13:48:00,
2013-01-09 06:54:00,27.7,10.0,30.39,NW,326,5.0,7.0,47,0.00,,,0.00,0.0,meteohub,2013-01-09 13:54:00,
2013-01-09 06:59:00,27.1,9.1,30.39,NW,326,5.0,7.0,46,0.00,,,0.00,0.0,meteohub,2013-01-09 13:59:00,
2013-01-09 07:04:00,27.7,9.1,30.39,NW,326,2.0,7.0,45,0.00,,,0.00,0.0,meteohub,2013-01-09 14:04:00,
2013-01-09 07:09:00,28.0,9.0,30.39,NW,326,0.0,6.0,44,0.00,,,0.00,0.0,meteohub,2013-01-09 14:09:00,
2013-01-09 07:14:00,28.2,9.1,30.39,NW,326,0.0,6.0,44,0.00,,,0.00,0.0,meteohub,2013-01-09 14:14:00,
2013-01-09 07:20:00,28.2,8.1,30.39,NW,326,0.0,5.0,42,0.00,,,0.00,0.0,meteohub,2013-01-09 14:20:00,
2013-01-09 07:25:00,28.4,7.7,30.40,NW,326,0.0,4.0,41,0.00,,,0.00,0.0,meteohub,2013-01-09 14:25:00,
2013-01-09 07:30:00,28.2,7.5,30.40,NW,326,1.0,5.0,41,0.00,,,0.00,5.0,meteohub,2013-01-09 14:30:00,
2013-01-09 07:35:00,28.4,7.2,30.40,NW,326,0.0,5.0,40,0.00,,,0.00,5.0,meteohub,2013-01-09 14:35:00,
2013-01-09 07:40:00,28.6,7.3,30.41,NW,326,2.0,5.0,40,0.00,,,0.00,7.0,meteohub,2013-01-09 14:40:00,
2013-01-09 07:46:00,27.9,7.7,30.41,NW,326,5.0,5.0,42,0.00,,,0.00,9.0,meteohub,2013-01-09 14:46:00,
2013-01-09 07:51:00,26.6,8.1,30.42,NW,326,5.0,5.0,45,0.00,,,0.00,11.0,meteohub,2013-01-09 14:51:00,
2013-01-09 07:56:00,25.9,8.4,30.41,NW,326,5.0,6.0,47,0.00,,,0.00,16.0,meteohub,2013-01-09 14:56:00,
2013-01-09 08:01:00,25.9,9.3,30.41,NW,326,6.0,6.0,49,0.00,,,0.00,18.0,meteohub,2013-01-09 15:01:00,
2013-01-09 08:07:00,25.2,9.1,30.41,NW,326,6.0,7.0,50,0.00,,,0.00,19.0,meteohub,2013-01-09 15:07:00,
2013-01-09 08:12:00,25.3,8.8,30.41,NW,326,5.0,7.0,49,0.00,,,0.00,63.0,meteohub,2013-01-09 15:12:00,
2013-01-09 08:17:00,25.7,9.7,30.41,NW,326,4.0,7.0,50,0.00,,,0.00,42.0,meteohub,2013-01-09 15:17:00,
2013-01-09 08:22:00,25.9,10.2,30.41,NW,326,6.0,6.0,51,0.00,,,0.00,23.0,meteohub,2013-01-09 15:22:00,
2013-01-09 08:27:00,25.9,10.2,30.41,NW,326,5.0,6.0,51,0.00,,,0.00,23.0,meteohub,2013-01-09 15:27:00,
2013-01-09 08:33:00,26.1,10.4,30.42,NW,326,6.0,7.0,51,0.00,,,0.00,26.0,meteohub,2013-01-09 15:33:00,
2013-01-09 08:38:00,27.0,10.8,30.41,NW,326,4.0,7.0,50,0.00,,,0.00,40.0,meteohub,2013-01-09 15:38:00,
2013-01-09 08:43:00,27.7,8.1,30.42,NW,326,0.0,7.0,43,0.00,,,0.00,25.0,meteohub,2013-01-09 15:43:00,
2013-01-09 08:48:00,29.8,7.9,30.42,NW,326,0.0,7.0,39,0.00,,,0.00,23.0,meteohub,2013-01-09 15:48:00,
2013-01-09 08:53:00,31.8,7.9,30.42,NW,326,0.0,6.0,36,0.00,,,0.00,25.0,meteohub,2013-01-09 15:53:00,
2013-01-09 08:59:00,32.2,8.8,30.42,NW,326,5.0,5.0,37,0.00,,,0.00,30.0,meteohub,2013-01-09 15:59:00,
2013-01-09 09:04:00,31.5,10.4,30.42,NW,326,4.0,6.0,41,0.00,,,0.00,81.0,meteohub,2013-01-09 16:04:00,
2013-01-09 09:09:00,32.0,8.6,30.42,NW,326,5.0,6.0,37,0.00,,,0.00,25.0,meteohub,2013-01-09 16:09:00,
2013-01-09 09:14:00,33.3,8.6,30.42,NW,326,0.0,6.0,35,0.00,,,0.00,25.0,meteohub,2013-01-09 16:14:00,
2013-01-09 09:20:00,35.1,8.2,30.42,NW,326,0.0,6.0,32,0.00,,,0.00,25.0,meteohub,2013-01-09 16:20:00,
2013-01-09 09:25:00,36.5,8.1,30.42,NW,326,0.0,6.0,30,0.00,,,0.00,25.0,meteohub,2013-01-09 16:25:00,
2013-01-09 09:30:00,37.4,8.1,30.42,NW,326,1.0,5.0,29,0.00,,,0.00,30.0,meteohub,2013-01-09 16:30:00,
2013-01-09 09:35:00,38.3,8.1,30.42,NW,326,0.0,5.0,28,0.00,,,0.00,39.0,meteohub,2013-01-09 16:35:00,
2013-01-09 09:40:00,38.8,8.4,30.42,NW,326,1.0,5.0,28,0.00,,,0.00,169.0,meteohub,2013-01-09 16:40:00,
2013-01-09 09:45:00,39.4,8.2,30.42,NW,326,1.0,6.0,27,0.00,,,0.00,33.0,meteohub,2013-01-09 16:45:00,
2013-01-09 09:51:00,39.9,8.6,30.42,NW,326,0.0,6.0,27,0.00,,,0.00,58.0,meteohub,2013-01-09 16:51:00,
2013-01-09 09:56:00,40.3,9.0,30.41,NW,326,0.0,6.0,27,0.00,,,0.00,100.0,meteohub,2013-01-09 16:56:00,
2013-01-09 10:01:00,40.6,8.4,30.41,NW,326,0.0,2.0,26,0.00,,,0.00,54.0,meteohub,2013-01-09 17:01:00,
2013-01-09 10:06:00,41.2,8.1,30.41,NW,326,2.0,4.0,25,0.00,,,0.00,70.0,meteohub,2013-01-09 17:06:00,
2013-01-09 10:11:00,41.5,9.1,30.41,NW,326,0.0,6.0,26,0.00,,,0.00,28.0,meteohub,2013-01-09 17:11:00,
2013-01-09 10:17:00,41.5,10.0,30.41,South,185,2.0,8.0,27,0.00,,,0.00,28.0,meteohub,2013-01-09 17:17:00,
2013-01-09 10:22:00,41.2,10.6,30.41,WSW,251,0.0,8.0,28,0.00,,,0.00,28.0,meteohub,2013-01-09 17:22:00,
2013-01-09 10:27:00,40.6,10.0,30.41,WSW,251,0.0,8.0,28,0.00,,,0.00,30.0,meteohub,2013-01-09 17:27:00,
2013-01-09 10:32:00,40.8,10.2,30.40,WSW,248,0.0,5.0,28,0.00,,,0.00,37.0,meteohub,2013-01-09 17:32:00,
2013-01-09 10:37:00,41.0,11.1,30.40,WSW,248,1.0,5.0,29,0.00,,,0.00,28.0,meteohub,2013-01-09 17:37:00,
2013-01-09 10:43:00,41.4,9.9,30.40,South,191,0.0,5.0,27,0.00,,,0.00,37.0,meteohub,2013-01-09 17:43:00,
2013-01-09 10:48:00,41.7,8.4,30.40,WNW,303,8.0,8.0,25,0.00,,,0.00,30.0,meteohub,2013-01-09 17:48:00,
2013-01-09 10:53:00,42.1,10.6,30.40,WNW,302,2.0,10.0,27,0.00,,,0.00,32.0,meteohub,2013-01-09 17:53:00,
2013-01-09 10:58:00,42.3,10.6,30.39,WNW,302,1.0,10.0,27,0.00,,,0.00,32.0,meteohub,2013-01-09 17:58:00,
2013-01-09 11:04:00,42.4,10.0,30.39,WNW,302,6.0,8.0,26,0.00,,,0.00,37.0,meteohub,2013-01-09 18:04:00,
2013-01-09 11:09:00,42.6,10.0,30.38,NW,305,2.0,7.0,26,0.00,,,0.00,35.0,meteohub,2013-01-09 18:09:00,
2013-01-09 11:14:00,43.0,10.4,30.38,NW,304,1.0,9.0,26,0.00,,,0.00,35.0,meteohub,2013-01-09 18:14:00,
2013-01-09 11:19:00,43.0,9.5,30.38,WNW,301,0.0,9.0,25,0.00,,,0.00,35.0,meteohub,2013-01-09 18:19:00,
2013-01-09 11:25:00,43.5,10.9,30.37,WNW,301,0.0,8.0,26,0.00,,,0.00,475.0,meteohub,2013-01-09 18:25:00,
2013-01-09 11:30:00,44.1,10.4,30.36,South,185,0.0,8.0,25,0.00,,,0.00,341.0,meteohub,2013-01-09 18:30:00,
2013-01-09 11:35:00,44.2,10.6,30.36,WNW,298,4.0,6.0,25,0.00,,,0.00,455.0,meteohub,2013-01-09 18:35:00,
2013-01-09 11:41:00,44.2,10.6,30.36,WNW,301,3.0,11.0,25,0.00,,,0.00,44.0,meteohub,2013-01-09 18:41:00,
2013-01-09 11:42:00,44.2,10.6,30.36,WNW,301,4.0,11.0,25,0.00,,,0.00,47.0,meteohub,2013-01-09 18:42:00,
2013-01-09 11:43:00,44.2,9.7,30.36,WNW,301,1.0,11.0,24,0.00,,,0.00,51.0,meteohub,2013-01-09 18:43:00,
2013-01-09 11:44:00,44.4,9.9,30.35,WNW,301,0.0,11.0,24,0.00,,,0.00,44.0,meteohub,2013-01-09 18:44:00,
2013-01-09 11:45:00,44.4,9.9,30.35,WNW,301,0.0,11.0,24,0.00,,,0.00,39.0,meteohub,2013-01-09 18:45:00,
2013-01-09 11:46:00,44.6,10.0,30.35,WNW,300,3.0,11.0,24,0.00,,,0.00,39.0,meteohub,2013-01-09 18:46:00,
2013-01-09 11:48:00,44.6,9.1,30.35,WNW,300,0.0,11.0,23,0.00,,,0.00,42.0,meteohub,2013-01-09 18:48:00,
2013-01-09 11:49:00,44.6,10.0,30.35,WNW,300,1.0,11.0,24,0.00,,,0.00,46.0,meteohub,2013-01-09 18:49:00,
2013-01-09 11:51:00,44.8,9.1,30.35,WNW,300,0.0,11.0,23,0.00,,,0.00,44.0,meteohub,2013-01-09 18:51:00,
2013-01-09 11:56:00,45.0,9.3,30.34,WNW,300,0.0,6.0,23,0.00,,,0.00,113.0,meteohub,2013-01-09 18:56:00,
2013-01-09 12:02:00,45.3,8.8,30.34,WNW,301,1.0,6.0,22,0.00,,,0.00,47.0,meteohub,2013-01-09 19:02:00,
2013-01-09 12:07:00,45.7,9.0,30.33,WNW,289,1.0,7.0,22,0.00,,,0.00,67.0,meteohub,2013-01-09 19:07:00,
2013-01-09 12:12:00,46.2,9.5,30.33,WSW,246,0.0,7.0,22,0.00,,,0.00,44.0,meteohub,2013-01-09 19:12:00,
2013-01-09 12:17:00,46.8,8.8,30.32,WNW,295,3.0,7.0,21,0.00,,,0.00,98.0,meteohub,2013-01-09 19:17:00,
2013-01-09 12:22:00,46.9,9.0,30.31,NW,315,2.0,8.0,21,0.00,,,0.00,520.0,meteohub,2013-01-09 19:22:00,
2013-01-09 12:28:00,47.5,8.4,30.30,NW,313,2.0,8.0,20,0.00,,,0.00,519.0,meteohub,2013-01-09 19:28:00,
2013-01-09 12:33:00,47.8,8.6,30.30,NW,313,2.0,8.0,20,0.00,,,0.00,517.0,meteohub,2013-01-09 19:33:00,
2013-01-09 12:38:00,48.4,6.8,30.30,NW,307,0.0,8.0,18,0.00,,,0.00,513.0,meteohub,2013-01-09 19:38:00,
2013-01-09 12:43:00,48.9,7.2,30.30,NW,307,0.0,9.0,18,0.00,,,0.00,512.0,meteohub,2013-01-09 19:43:00,
2013-01-09 12:49:00,49.6,9.0,30.29,NW,307,0.0,9.0,19,0.00,,,0.00,506.0,meteohub,2013-01-09 19:49:00,
2013-01-09 12:54:00,49.6,9.0,30.29,South,169,7.0,9.0,19,0.00,,,0.00,503.0,meteohub,2013-01-09 19:54:00,
2013-01-09 12:59:00,49.6,9.0,30.29,South,180,2.0,6.0,19,0.00,,,0.00,496.0,meteohub,2013-01-09 19:59:00,
2013-01-09 13:04:00,49.8,8.1,30.28,South,180,0.0,9.0,18,0.00,,,0.00,492.0,meteohub,2013-01-09 20:04:00,
2013-01-09 13:10:00,50.4,8.4,30.28,SSW,199,0.0,9.0,18,0.00,,,0.00,487.0,meteohub,2013-01-09 20:10:00,
2013-01-09 13:15:00,50.7,9.9,30.27,SSW,199,0.0,4.0,19,0.00,,,0.00,480.0,meteohub,2013-01-09 20:15:00,
2013-01-09 13:20:00,50.7,7.5,30.27,SSW,199,2.0,4.0,17,0.00,,,0.00,471.0,meteohub,2013-01-09 20:20:00,
2013-01-09 13:25:00,50.7,8.8,30.27,SSW,199,0.0,4.0,18,0.00,,,0.00,464.0,meteohub,2013-01-09 20:25:00,
2013-01-09 13:30:00,50.7,7.5,30.27,SSW,199,0.0,4.0,17,0.00,,,0.00,459.0,meteohub,2013-01-09 20:30:00,
2013-01-09 13:36:00,51.1,6.4,30.27,SSW,199,0.0,4.0,16,0.00,,,0.00,452.0,meteohub,2013-01-09 20:36:00,
2013-01-09 13:41:00,51.6,8.2,30.27,WNW,297,7.0,7.0,17,0.00,,,0.00,445.0,meteohub,2013-01-09 20:41:00,
2013-01-09 13:46:00,51.3,5.2,30.27,WNW,290,3.0,7.0,15,0.00,,,0.00,436.0,meteohub,2013-01-09 20:46:00,
2013-01-09 13:51:00,50.7,4.6,30.27,NW,306,0.0,9.0,15,0.00,,,0.00,425.0,meteohub,2013-01-09 20:51:00,
2013-01-09 13:57:00,50.5,8.6,30.27,NW,321,1.0,9.0,18,0.00,,,0.00,417.0,meteohub,2013-01-09 20:57:00,
2013-01-09 14:02:00,50.2,2.8,30.26,NW,318,5.0,9.0,14,0.00,,,0.00,408.0,meteohub,2013-01-09 21:02:00,
2013-01-09 14:07:00,49.5,7.7,30.26,NW,324,0.0,11.0,18,0.00,,,0.00,396.0,meteohub,2013-01-09 21:07:00,
2013-01-09 14:12:00,49.5,9.0,30.26,NW,324,0.0,11.0,19,0.00,,,0.00,385.0,meteohub,2013-01-09 21:12:00,
2013-01-09 14:17:00,49.8,5.4,30.26,NNW,330,4.0,11.0,16,0.00,,,0.00,376.0,meteohub,2013-01-09 21:17:00,
2013-01-09 14:23:00,49.8,6.8,30.26,NNW,338,2.0,8.0,17,0.00,,,0.00,364.0,meteohub,2013-01-09 21:23:00,
2013-01-09 14:28:00,49.3,5.0,30.25,NW,310,2.0,8.0,16,0.00,,,0.00,353.0,meteohub,2013-01-09 21:28:00,
2013-01-09 14:33:00,48.6,5.7,30.25,NW,310,11.0,11.0,17,0.00,,,0.00,341.0,meteohub,2013-01-09 21:33:00,
2013-01-09 14:38:00,48.2,5.4,30.26,North,0,4.0,13.0,17,0.00,,,0.00,329.0,meteohub,2013-01-09 21:38:00,
2013-01-09 14:43:00,48.4,5.5,30.25,NW,318,7.0,13.0,17,0.00,,,0.00,316.0,meteohub,2013-01-09 21:43:00,
2013-01-09 14:49:00,47.7,8.6,30.25,NNW,328,9.0,13.0,20,0.00,,,0.00,302.0,meteohub,2013-01-09 21:49:00,
2013-01-09 14:54:00,47.5,4.8,30.25,NW,326,5.0,13.0,17,0.00,,,0.00,288.0,meteohub,2013-01-09 21:54:00,
2013-01-09 14:59:00,47.7,7.3,30.25,NNW,340,1.0,13.0,19,0.00,,,0.00,272.0,meteohub,2013-01-09 21:59:00,
2013-01-09 15:04:00,47.7,5.0,30.25,NW,314,12.0,13.0,17,0.00,,,0.00,255.0,meteohub,2013-01-09 22:04:00,
2013-01-09 15:09:00,47.5,4.8,30.25,North,353,6.0,15.0,17,0.00,,,0.00,239.0,meteohub,2013-01-09 22:09:00,
2013-01-09 15:14:00,47.3,5.9,30.25,NW,318,7.0,15.0,18,0.00,,,0.00,221.0,meteohub,2013-01-09 22:14:00,
2013-01-09 15:20:00,46.8,5.5,30.24,NW,306,7.0,15.0,18,0.00,,,0.00,202.0,meteohub,2013-01-09 22:20:00,
2013-01-09 15:25:00,46.8,5.5,30.24,NW,320,6.0,12.0,18,0.00,,,0.00,186.0,meteohub,2013-01-09 22:25:00,
2013-01-09 15:30:00,46.8,7.7,30.24,NW,322,8.0,13.0,20,0.00,,,0.00,169.0,meteohub,2013-01-09 22:30:00,
2013-01-09 15:35:00,46.2,7.3,30.24,NW,318,7.0,13.0,20,0.00,,,0.00,151.0,meteohub,2013-01-09 22:35:00,
2013-01-09 15:40:00,45.9,5.9,30.23,NW,312,8.0,9.0,19,0.00,,,0.00,134.0,meteohub,2013-01-09 22:40:00,
2013-01-09 15:46:00,45.1,8.6,30.23,NW,320,7.0,12.0,22,0.00,,,0.00,118.0,meteohub,2013-01-09 22:46:00,
2013-01-09 15:51:00,45.1,8.6,30.23,NW,325,7.0,12.0,22,0.00,,,0.00,114.0,meteohub,2013-01-09 22:51:00,
2013-01-09 15:56:00,43.2,12.2,30.23,North,-999,-999.0,11.0,28,0.00,,,0.00,86.0,meteohub,2013-01-09 22:56:00,
2013-01-09 16:01:00,41.7,9.3,30.23,NW,324,4.0,9.0,26,0.00,,,0.00,69.0,meteohub,2013-01-09 23:01:00,
2013-01-09 16:06:00,40.8,9.3,30.23,NW,324,4.0,8.0,27,0.00,,,0.00,56.0,meteohub,2013-01-09 23:06:00,
2013-01-09 16:12:00,40.3,10.6,30.23,NW,324,5.0,8.0,29,0.00,,,0.00,42.0,meteohub,2013-01-09 23:12:00,
2013-01-09 16:17:00,39.6,11.5,30.22,NW,324,3.0,7.0,31,0.00,,,0.00,30.0,meteohub,2013-01-09 23:17:00,
2013-01-09 16:22:00,37.9,8.4,30.22,NW,324,4.0,6.0,29,0.00,,,0.00,12.0,meteohub,2013-01-09 23:22:00,
2013-01-09 16:27:00,36.9,9.0,30.22,NW,324,6.0,8.0,31,0.00,,,0.00,11.0,meteohub,2013-01-09 23:27:00,
2013-01-09 16:33:00,35.8,8.8,30.21,NW,324,5.0,8.0,32,0.00,,,0.00,11.0,meteohub,2013-01-09 23:33:00,
2013-01-09 16:38:00,35.1,8.2,30.21,NW,324,1.0,8.0,32,0.00,,,0.00,9.0,meteohub,2013-01-09 23:38:00,
2013-01-09 16:43:00,34.7,9.9,30.21,NW,324,2.0,7.0,35,0.00,,,0.00,7.0,meteohub,2013-01-09 23:43:00,
2013-01-09 16:48:00,33.8,12.0,30.21,NW,324,1.0,7.0,40,0.00,,,0.00,5.0,meteohub,2013-01-09 23:48:00,
2013-01-09 16:53:00,32.7,12.7,30.20,NW,324,0.0,5.0,43,0.00,,,0.00,0.0,meteohub,2013-01-09 23:53:00,
2013-01-09 16:59:00,32.2,12.2,30.20,NW,324,0.0,4.0,43,0.00,,,0.00,0.0,meteohub,2013-01-09 23:59:00,
2013-01-09 17:04:00,31.5,10.9,30.20,NW,324,2.0,4.0,42,0.00,,,0.00,0.0,meteohub,2013-01-10 00:04:00,
2013-01-09 17:09:00,30.9,10.0,30.20,NW,324,5.0,5.0,41,0.00,,,0.00,0.0,meteohub,2013-01-10 00:09:00,
2013-01-09 17:14:00,31.5,9.3,30.20,NW,324,5.0,6.0,39,0.00,,,0.00,0.0,meteohub,2013-01-10 00:14:00,
2013-01-09 17:19:00,31.3,11.3,30.20,NW,324,2.0,6.0,43,0.00,,,0.00,0.0,meteohub,2013-01-10 00:19:00,
2013-01-09 17:25:00,30.4,10.6,30.20,NW,324,4.0,6.0,43,0.00,,,0.00,0.0,meteohub,2013-01-10 00:25:00,
2013-01-09 17:30:00,29.7,10.4,30.20,NW,324,2.0,5.0,44,0.00,,,0.00,0.0,meteohub,2013-01-10 00:30:00,
2013-01-09 17:35:00,29.1,11.5,30.20,NW,324,0.0,5.0,47,0.00,,,0.00,0.0,meteohub,2013-01-10 00:35:00,
2013-01-09 17:40:00,28.6,11.3,30.20,NW,324,0.0,5.0,48,0.00,,,0.00,0.0,meteohub,2013-01-10 00:40:00,
2013-01-09 17:45:00,28.0,10.4,30.20,NW,324,2.0,5.0,47,0.00,,,0.00,0.0,meteohub,2013-01-10 00:45:00,
2013-01-09 17:51:00,27.9,8.8,30.20,NW,324,0.0,5.0,44,0.00,,,0.00,0.0,meteohub,2013-01-10 00:51:00,
2013-01-09 17:56:00,28.0,7.9,30.20,NW,324,0.0,4.0,42,0.00,,,0.00,0.0,meteohub,2013-01-10 00:56:00,
2013-01-09 18:01:00,28.4,6.6,30.20,NW,324,0.0,4.0,39,0.00,,,0.00,0.0,meteohub,2013-01-10 01:01:00,
2013-01-09 18:06:00,28.8,8.6,30.20,NW,324,0.0,3.0,42,0.00,,,0.00,0.0,meteohub,2013-01-10 01:06:00,
2013-01-09 18:11:00,28.9,8.2,30.20,NW,324,1.0,4.0,41,0.00,,,0.00,0.0,meteohub,2013-01-10 01:11:00,
2013-01-09 18:17:00,28.8,5.7,30.20,NW,324,2.0,4.0,37,0.00,,,0.00,0.0,meteohub,2013-01-10 01:17:00,
2013-01-09 18:22:00,29.5,8.6,30.19,NW,324,1.0,5.0,41,0.00,,,0.00,0.0,meteohub,2013-01-10 01:22:00,
2013-01-09 18:27:00,29.7,8.8,30.19,NW,309,3.0,5.0,41,0.00,,,0.00,0.0,meteohub,2013-01-10 01:27:00,
2013-01-09 18:32:00,30.0,8.6,30.19,NW,308,1.0,6.0,40,0.00,,,0.00,0.0,meteohub,2013-01-10 01:32:00,
2013-01-09 18:37:00,30.6,6.8,30.19,NW,315,0.0,6.0,36,0.00,,,0.00,0.0,meteohub,2013-01-10 01:37:00,
2013-01-09 18:43:00,31.1,6.6,30.19,NW,312,6.0,9.0,35,0.00,,,0.00,0.0,meteohub,2013-01-10 01:43:00,
2013-01-09 18:48:00,32.7,6.8,30.19,WNW,302,6.0,9.0,33,0.00,,,0.00,0.0,meteohub,2013-01-10 01:48:00,
2013-01-09 18:53:00,34.0,7.9,30.19,NW,316,5.0,10.0,33,0.00,,,0.00,0.0,meteohub,2013-01-10 01:53:00,
2013-01-09 18:58:00,34.3,6.8,30.18,NW,319,6.0,12.0,31,0.00,,,0.00,0.0,meteohub,2013-01-10 01:58:00,
2013-01-09 19:04:00,34.9,6.6,30.19,NW,320,5.0,14.0,30,0.00,,,0.00,0.0,meteohub,2013-01-10 02:04:00,
2013-01-09 19:09:00,35.1,6.8,30.18,NW,326,2.0,14.0,30,0.00,,,0.00,0.0,meteohub,2013-01-10 02:09:00,
2013-01-09 19:14:00,35.4,5.5,30.18,NW,324,5.0,14.0,28,0.00,,,0.00,0.0,meteohub,2013-01-10 02:14:00,
2013-01-09 19:19:00,36.1,6.1,30.17,NNW,330,3.0,11.0,28,0.00,,,0.00,0.0,meteohub,2013-01-10 02:19:00,
2013-01-09 19:24:00,35.6,7.2,30.17,NNW,333,4.0,10.0,30,0.00,,,0.00,0.0,meteohub,2013-01-10 02:24:00,
2013-01-09 19:30:00,35.1,7.5,30.17,NNW,333,3.0,10.0,31,0.00,,,0.00,0.0,meteohub,2013-01-10 02:30:00,
2013-01-09 19:35:00,34.0,7.2,30.17,NNW,333,2.0,7.0,32,0.00,,,0.00,0.0,meteohub,2013-01-10 02:35:00,
2013-01-09 19:40:00,33.3,5.2,30.17,NNW,333,1.0,7.0,30,0.00,,,0.00,0.0,meteohub,2013-01-10 02:40:00,
2013-01-09 19:45:00,32.7,6.8,30.16,NNW,335,2.0,7.0,33,0.00,,,0.00,0.0,meteohub,2013-01-10 02:45:00,
2013-01-09 19:50:00,31.8,7.9,30.16,NNW,335,1.0,6.0,36,0.00,,,0.00,0.0,meteohub,2013-01-10 02:50:00,
2013-01-09 19:56:00,30.9,7.2,30.16,NNW,337,3.0,6.0,36,0.00,,,0.00,0.0,meteohub,2013-01-10 02:56:00,
2013-01-09 20:01:00,30.9,7.7,30.15,NE,41,2.0,6.0,37,0.00,,,0.00,0.0,meteohub,2013-01-10 03:01:00,
2013-01-09 20:06:00,30.6,7.3,30.15,NE,40,4.0,6.0,37,0.00,,,0.00,0.0,meteohub,2013-01-10 03:06:00,
2013-01-09 20:11:00,30.7,6.3,30.14,NW,321,3.0,7.0,35,0.00,,,0.00,0.0,meteohub,2013-01-10 03:11:00,
2013-01-09 20:16:00,30.9,7.2,30.14,NW,322,5.0,8.0,36,0.00,,,0.00,0.0,meteohub,2013-01-10 03:16:00,
2013-01-09 20:21:00,31.3,6.8,30.14,NW,314,5.0,8.0,35,0.00,,,0.00,0.0,meteohub,2013-01-10 03:21:00,
2013-01-09 20:27:00,31.1,6.6,30.13,NW,317,5.0,7.0,35,0.00,,,0.00,0.0,meteohub,2013-01-10 03:27:00,
2013-01-09 20:32:00,31.8,5.9,30.12,NW,326,5.0,9.0,33,0.00,,,0.00,0.0,meteohub,2013-01-10 03:32:00,
2013-01-09 20:37:00,32.5,5.2,30.12,NW,309,3.0,9.0,31,0.00,,,0.00,0.0,meteohub,2013-01-10 03:37:00,
2013-01-09 20:42:00,33.4,5.4,30.12,NW,317,5.0,9.0,30,0.00,,,0.00,0.0,meteohub,2013-01-10 03:42:00,
2013-01-09 20:48:00,33.4,3.7,30.11,NW,317,5.0,9.0,28,0.00,,,0.00,0.0,meteohub,2013-01-10 03:48:00,
2013-01-09 20:53:00,34.3,3.0,30.11,NW,320,3.0,7.0,26,0.00,,,0.00,0.0,meteohub,2013-01-10 03:53:00,
2013-01-09 20:58:00,35.1,1.9,30.10,NW,317,11.0,11.0,24,0.00,,,0.00,0.0,meteohub,2013-01-10 03:58:00,
2013-01-09 21:03:00,36.7,0.3,30.09,NW,320,11.0,13.0,21,0.00,,,0.00,0.0,meteohub,2013-01-10 04:03:00,
2013-01-09 21:08:00,37.9,0.5,30.09,NW,324,8.0,14.0,20,0.00,,,0.00,0.0,meteohub,2013-01-10 04:08:00,
2013-01-09 21:14:00,38.1,1.6,30.09,NW,318,9.0,18.0,21,0.00,,,0.00,0.0,meteohub,2013-01-10 04:14:00,
2013-01-09 21:19:00,37.9,1.4,30.08,NW,325,7.0,18.0,21,0.00,,,0.00,0.0,meteohub,2013-01-10 04:19:00,
2013-01-09 21:24:00,37.9,1.4,30.08,NW,320,3.0,18.0,21,0.00,,,0.00,0.0,meteohub,2013-01-10 04:24:00,
2013-01-09 21:29:00,37.6,2.1,30.08,NW,316,2.0,18.0,22,0.00,,,0.00,0.0,meteohub,2013-01-10 04:29:00,
2013-01-09 21:34:00,37.2,0.9,30.08,NW,324,4.0,18.0,21,0.00,,,0.00,0.0,meteohub,2013-01-10 04:34:00,
2013-01-09 21:39:00,36.9,0.5,30.08,WNW,293,3.0,18.0,21,0.00,,,0.00,0.0,meteohub,2013-01-10 04:39:00,
2013-01-09 21:45:00,36.3,1.0,30.08,WNW,293,0.0,10.0,22,0.00,,,0.00,0.0,meteohub,2013-01-10 04:45:00,
2013-01-09 21:50:00,35.8,0.7,30.08,WNW,293,0.0,8.0,22,0.00,,,0.00,0.0,meteohub,2013-01-10 04:50:00,
2013-01-09 21:55:00,34.9,0.9,30.07,WNW,293,0.0,3.0,23,0.00,,,0.00,0.0,meteohub,2013-01-10 04:55:00,
2013-01-09 22:00:00,34.3,1.2,30.07,WNW,295,4.0,4.0,24,0.00,,,0.00,0.0,meteohub,2013-01-10 05:00:00,
2013-01-09 22:01:00,34.3,2.1,30.07,WNW,295,1.0,2.0,25,0.00,,,0.00,0.0,meteohub,2013-01-10 05:01:00,
2013-01-09 22:02:00,34.3,1.2,30.08,WNW,287,1.0,2.0,24,0.00,,,0.00,0.0,meteohub,2013-01-10 05:02:00,
2013-01-09 22:06:00,35.1,0.0,30.07,WNW,287,2.0,8.0,22,0.00,,,0.00,0.0,meteohub,2013-01-10 05:06:00,
2013-01-09 22:11:00,36.0,-0.2,30.07,WNW,301,1.0,8.0,21,0.00,,,0.00,0.0,meteohub,2013-01-10 05:11:00,
2013-01-09 22:17:00,36.3,-0.9,30.07,WNW,299,0.0,8.0,20,0.00,,,0.00,0.0,meteohub,2013-01-10 05:17:00,
2013-01-09 22:22:00,36.0,1.8,30.08,WNW,300,4.0,8.0,23,0.00,,,0.00,0.0,meteohub,2013-01-10 05:22:00,
2013-01-09 22:27:00,35.8,2.5,30.08,WNW,298,4.0,8.0,24,0.00,,,0.00,0.0,meteohub,2013-01-10 05:27:00,
2013-01-09 22:32:00,35.8,3.4,30.08,NW,326,7.0,8.0,25,0.00,,,0.00,0.0,meteohub,2013-01-10 05:32:00,
2013-01-09 22:37:00,34.9,2.7,30.06,NW,326,1.0,9.0,25,0.00,,,0.00,0.0,meteohub,2013-01-10 05:37:00,
2013-01-09 22:43:00,34.5,3.2,30.07,NW,326,0.0,9.0,26,0.00,,,0.00,0.0,meteohub,2013-01-10 05:43:00,
2013-01-09 22:48:00,33.6,5.5,30.06,NW,326,0.0,9.0,30,0.00,,,0.00,0.0,meteohub,2013-01-10 05:48:00,
2013-01-09 22:53:00,31.6,4.5,30.06,NW,325,2.0,7.0,31,0.00,,,0.00,0.0,meteohub,2013-01-10 05:53:00,
2013-01-09 22:58:00,30.6,4.8,30.06,NW,325,6.0,9.0,33,0.00,,,0.00,0.0,meteohub,2013-01-10 05:58:00,
2013-01-09 23:03:00,30.2,4.5,30.06,NW,324,6.0,9.0,33,0.00,,,0.00,0.0,meteohub,2013-01-10 06:03:00,
2013-01-09 23:09:00,30.4,3.4,30.05,NW,324,4.0,12.0,31,0.00,,,0.00,0.0,meteohub,2013-01-10 06:09:00,
2013-01-09 23:14:00,29.8,3.6,30.05,NNW,329,1.0,12.0,32,0.00,,,0.00,0.0,meteohub,2013-01-10 06:14:00,
2013-01-09 23:19:00,29.3,3.7,30.05,NNW,329,5.0,12.0,33,0.00,,,0.00,0.0,meteohub,2013-01-10 06:19:00,
2013-01-09 23:24:00,28.8,3.9,30.04,NNW,329,4.0,10.0,34,0.00,,,0.00,0.0,meteohub,2013-01-10 06:24:00,
2013-01-09 23:29:00,28.8,4.5,30.05,NNW,329,4.0,10.0,35,0.00,,,0.00,0.0,meteohub,2013-01-10 06:29:00,
2013-01-09 23:35:00,28.4,5.4,30.04,North,-999,-999.0,7.0,37,0.00,,,0.00,0.0,meteohub,2013-01-10 06:35:00,
2013-01-09 23:40:00,27.5,5.2,30.04,NNW,329,5.0,7.0,38,0.00,,,0.00,0.0,meteohub,2013-01-10 06:40:00,
2013-01-09 23:45:00,27.1,6.1,30.04,NNW,329,4.0,7.0,40,0.00,,,0.00,0.0,meteohub,2013-01-10 06:45:00,
2013-01-09 23:50:00,27.1,5.5,30.04,NNW,329,5.0,7.0,39,0.00,,,0.00,0.0,meteohub,2013-01-10 06:50:00,
2013-01-09 23:56:00,27.0,5.4,30.03,NNW,329,5.0,9.0,39,0.00,,,0.00,0.0,meteohub,2013-01-10 06:56:00,